Location: Piotrkow Trybunalski
(51.4000°N, 19.6830°E)
Time: 00:12:31
(UTC+02:00)

STRAND 1 - Pass Details

Date: 05 April 2023
Orbit: 767 x 779 km, 98.4° (Epoch: 06 June)

Event Time Altitude Azimuth Distance (km) Brightness Sun altitude
Rises 19:53:09 0° 13° (NNE) 3,252 ? -5.8°
Reaches altitude 10° 19:55:28 10° 13° (NNE) 2,321 ? -6.1°
Maximum altitude 20:00:35 79° 287° (WNW) 788 ? -6.9°
Drops below altitude 10° 20:05:39 10° 202° (SSW) 2,304 ? -7.6°
Sets 20:07:57 0° 201° (SSW) 3,227 ? -7.9°
